This demonstration page uses our WeatherBlox Daily Observations layout. Learn more.

Hourly Observations for May 19, 2015

Temp ( °F °C ) Dew Point ( °F °C ) Humidity (%) Winds ( mph kmh ) Pressure ( in mb ) Visibility ( mi km ) Precip ( " mm )
12:15 am 00:15 Clear 47 8.2 40 4.3 77 77 NE 7 11 30.36 1028 10 16.0934 0 0
12:35 am 00:35 Clear 47 8.3 40 4.2 76 76 ENE 9 15 30.36 1028 10 16.0934 0 0
12:55 am 00:55 Clear 46 8 39 4.1 77 77 ENE 6 9 30.39 1029 10 16.0934 0 0
1:15 am 01:15 Clear 45 7 39 3.8 80 80 ENE 6 9 30.36 1028 10 16.0934 0 0
1:35 am 01:35 Clear 44 6.7 39 3.8 82 82 ENE 6 9 30.36 1028 10 16.0934 0 0
1:55 am 01:55 Clear 44 6.6 39 3.7 82 82 NE 7 11 30.36 1028 10 16.0934 0 0
2:15 am 02:15 Clear 45 7.1 38 3.5 78 78 NE 9 15 30.36 1028 10 16.0934 0 0
2:35 am 02:35 Partly Cloudy 44 6.7 38 3.5 80 80 NE 7 11 30.36 1028 10 16.0934 0 0
2:55 am 02:55 Mostly Cloudy 45 7.2 39 3.8 79 79 ENE 5 7 30.36 1028 10 16.0934 0 0
3:15 am 03:15 Mostly Cloudy 45 7.2 39 3.9 80 80 ENE 6 9 30.36 1028 10 16.0934 0 0
3:35 am 03:35 Mostly Cloudy 45 7.1 39 3.9 80 80 ENE 5 7 30.36 1028 10 16.0934 0 0
3:55 am 03:55 Cloudy 46 7.5 38 3.5 76 76 ENE 12 19 30.33 1027 10 16.0934 0 0
4:15 am 04:15 Cloudy 45 7.3 38 3.6 78 78 ENE 10 17 30.36 1028 10 16.0934 0 0
4:35 am 04:35 Cloudy 45 7.4 38 3.4 76 76 E 12 19 30.36 1028 10 16.0934 0 0
4:55 am 04:55 Cloudy 45 7.2 38 3.2 76 76 E 13 20 30.36 1028 10 16.0934 0 0
5:15 am 05:15 Cloudy 45 7 37 3 76 76 ENE 15 24 30.36 1028 10 16.0934 0 0
5:35 am 05:35 Mostly Cloudy 44 6.5 37 2.8 77 77 ENE 15 24 30.36 1028 10 16.0934 0 0
5:55 am 05:55 Partly Cloudy 43 6.1 37 2.7 79 79 ENE 12 19 30.33 1027 10 16.0934 0 0
6:15 am 06:15 Clear 42 5.8 37 3 82 82 ENE 13 20 30.36 1028 10 16.0934 0 0
6:35 am 06:35 Sunny 42 5.5 37 2.7 82 82 ENE 12 19 30.36 1028 10 16.0934 0 0
6:55 am 06:55 Sunny 42 5.5 37 2.9 84 84 ENE 9 15 30.36 1028 10 16.0934 0 0
7:15 am 07:15 Partly Cloudy 42 5.5 35 1.9 78 78 ENE 16 26 30.36 1028 10 16.0934 0 0
7:35 am 07:35 Mostly Cloudy 42 5.5 36 2.1 79 79 ENE 10 17 30.36 1028 10 16.0934 0 0
7:55 am 07:55 Mostly Cloudy 42 5.5 36 2.1 79 79 E 9 15 30.36 1028 10 16.0934 0 0
8:15 am 08:15 Mostly Cloudy 42 5.5 36 2.2 80 80 ENE 13 20 30.36 1028 10 16.0934 0 0
8:35 am 08:35 Cloudy 42 5.4 36 2 79 79 NE 13 20 30.39 1029 10 16.0934 0 0
8:55 am 08:55 Cloudy 42 5.5 35 1.6 76 76 ENE 14 22 30.36 1028 10 16.0934 0 0
9:15 am 09:15 Cloudy 42 5.7 34 1.2 73 73 ENE 12 19 30.36 1028 10 16.0934 0 0
9:35 am 09:35 Mostly Cloudy 42 5.8 35 1.5 74 74 ENE 10 17 30.36 1028 10 16.0934 0 0
9:55 am 09:55 Mostly Cloudy 43 6.1 35 1.5 73 73 ENE 16 26 30.36 1028 10 16.0934 0 0
10:15 am 10:15 Cloudy 42 5.8 33 0.6 70 70 ENE 15 24 30.36 1028 10 16.0934 0 0
10:35 am 10:35 Mostly Cloudy 43 5.9 34 1 71 71 ENE 14 22 30.36 1028 10 16.0934 0 0
10:55 am 10:55 Cloudy 42 5.8 34 1.3 73 73 NE 12 19 30.36 1028 10 16.0934 0 0
11:15 am 11:15 Cloudy 42 5.8 34 0.9 71 71 NE 7 11 30.39 1029 10 16.0934 0 0
11:35 am 11:35 Cloudy with Light Rain 42 5.7 34 1.1 73 73 NNE 7 11 30.39 1029 10 16.0934 0 0
11:55 am 11:55 Cloudy with Light Rain 42 5.3 36 2.3 81 81 NE 14 22 30.39 1029 10 16.0934 0.01 0.254
12:15 pm 12:15 Mostly Cloudy with Light Rain 41 5.2 36 2.4 82 82 NNE 17 28 30.36 1028 10 16.0934 0 0
12:35 pm 12:35 Partly Cloudy 41 5.2 36 2.4 82 82 NNE 15 24 30.3 1026 10 16.0934 0 0
12:55 pm 12:55 Mostly Cloudy with Light Rain 41 5.1 36 2.3 82 82 NE 13 20 30.36 1028 10 16.0934 0 0
1:15 pm 13:15 Cloudy 41 5.2 36 2.2 81 81 NE 13 20 30.36 1028 10 16.0934 0 0
1:35 pm 13:35 Cloudy with Light Rain 41 5.1 35 1.8 79 79 ENE 5 7 30.39 1029 10 16.0934 0 0
1:55 pm 13:55 Cloudy with Light Rain 41 5.1 36 2.1 81 81 ENE 3 6 30.39 1029 10 16.0934 0.01 0.254
2:15 pm 14:15 Cloudy with Light Rain 41 5.1 37 2.6 84 84 ENE 10 17 30.39 1029 10 16.0934 0.01 0.254
2:35 pm 14:35 Cloudy with Light Rain 41 5 37 2.9 86 86 ENE 13 20 30.36 1028 10 16.0934 0.02 0.508
2:55 pm 14:55 Cloudy with Light Rain 40 4.6 37 2.6 87 87 ENE 18 30 30.3 1026 10 16.0934 0.04 1.016
3:15 pm 15:15 Cloudy with Light Rain 40 4.6 37 2.9 89 89 NE 21 33 30.27 1025 10 16.0934 0.02 0.508
3:35 pm 15:35 Cloudy with Rain 40 4.5 37 2.7 88 88 NE 20 31 30.27 1025 7 11.26538 0.06 1.524
3:55 pm 15:55 Cloudy with Light Rain 40 4.6 38 3.1 90 90 NE 18 30 30.27 1025 7 11.26538 0.1 2.54
4:15 pm 16:15 Cloudy with Light Rain 41 5 38 3.6 91 91 NE 18 30 30.24 1024 7 11.26538 0.02 0.508
4:35 pm 16:35 Cloudy with Light Drizzle 41 5 38 3.4 90 90 ENE 18 30 30.24 1024 10 16.0934 0.02 0.508
4:55 pm 16:55 Cloudy 41 5 38 3.5 90 90 NE 25 41 30.21 1023 10 16.0934 0.02 0.508
5:15 pm 17:15 Mostly Cloudy 41 5.1 38 3.6 90 90 NE 24 39 30.18 1022 10 16.0934 0 0
5:35 pm 17:35 Mostly Cloudy 42 5.3 38 3.6 89 89 ENE 26 43 30.18 1022 10 16.0934 0 0
5:55 pm 17:55 Cloudy 42 5.3 38 3.6 89 89 ENE 20 31 30.18 1022 10 16.0934 0 0
6:15 pm 18:15 Cloudy with Light Drizzle 42 5.5 39 3.9 90 90 ENE 22 35 30.18 1022 10 16.0934 0 0
6:35 pm 18:35 Cloudy with Light Rain 42 5.3 38 3.6 89 89 NE 17 28 30.18 1022 10 16.0934 0 0
6:55 pm 18:55 Cloudy with Light Rain 42 5.3 39 3.7 90 90 NE 18 30 30.18 1022 10 16.0934 0.01 0.254
7:15 pm 19:15 Cloudy with Light Rain 41 5.2 39 3.8 91 91 NNE 14 22 30.21 1023 7 11.26538 0 0
7:35 pm 19:35 Cloudy with Rain 41 5.1 39 3.7 91 91 NNE 13 20 30.21 1023 4 6.43736 0.03 0.762
7:55 pm 19:55 Cloudy with Light Rain 41 5.1 39 4 93 93 NNE 13 20 30.21 1023 5 8.0467 0.06 1.524
8:15 pm 20:15 Cloudy with Rain 41 5 39 4 93 93 NNE 13 20 30.21 1023 4 6.43736 0.02 0.508
8:35 pm 20:35 Cloudy with Rain 41 5 39 4 93 93 NNE 9 15 30.21 1023 5 8.0467 0.05 1.27
8:55 pm 20:55 Cloudy with Rain 41 4.9 39 4 94 94 NNE 10 17 30.21 1023 4 6.43736 0.11 2.794
9:15 pm 21:15 Cloudy with Light Rain 41 4.8 39 4 95 95 NNE 10 17 30.21 1023 5 8.0467 0.02 0.508
9:35 pm 21:35 Cloudy with Light Rain 41 4.8 39 4 95 95 NNE 9 15 30.24 1024 5 8.0467 0.06 1.524
9:55 pm 21:55 Cloudy with Rain 41 4.8 39 4 95 95 N 9 15 30.24 1024 4 6.43736 0.1 2.54
10:15 pm 22:15 Cloudy with Light Rain 41 5 39 4 93 93 NNE 8 13 30.24 1024 5 8.0467 0.02 0.508
10:35 pm 22:35 Cloudy with Drizzle 41 5 39 4 93 93 NNE 8 13 30.27 1025 5 8.0467 0.03 0.762
10:55 pm 22:55 Cloudy with Rain 41 5 39 4.1 94 94 NNE 8 13 30.27 1025 5 8.0467 0.03 0.762
11:15 pm 23:15 Cloudy with Light Rain 41 5 39 4.1 94 94 NNE 8 13 30.27 1025 4 6.43736 0.05 1.27
11:35 pm 23:35 Cloudy with Rain 41 5 40 4.2 95 95 NE 9 15 30.27 1025 5 8.0467 0.06 1.524
11:55 pm 23:55 Cloudy with Drizzle 41 5 39 4.1 94 94 NE 9 15 30.24 1024 5 8.0467 0.08 2.032

Powered by AerisWeather